Regional Weather Roundup
Issued by NWS Cleveland, OH

Home | Current Version | Previous Version | Graphics & Text | Print | Product List | Glossary On
Versions: 1 2 3 4 5 6 7 8 9 10 11 12 13 14 15 16 17 18 19 20 21 22 23 24 25 26 27 28 29 30 31 32 33 34 35 36 37 38 39 40 41 42 43 44 45 46 47 48 49 50
000
ASUS41 KCLE 221310
RWRCLE
OHIO REGIONAL WEATHER ROUNDUP
NATIONAL WEATHER SERVICE CLEVELAND, OH
900 AM EDT FRI AUG 22 2014

NOTE: "FAIR" INDICATES FEW OR NO CLOUDS BELOW 12,000 FEET WITH NO
SIGNIFICANT WEATHER AND/OR OBSTRUCTIONS TO VISIBILITY.

OHZ001>008-015>018-024>027-034-035-043-044-221400-
   NORTHWEST OHIO

CITY           SKY/WX    TMP DP  RH WIND       PRES   REMARKS
DEFIANCE       PTSUNNY   73  69  87 SW6       29.99R
FINDLAY        CLOUDY    72  70  93 SW5       29.99S
TOLEDO EXPRESS MOSUNNY   73  69  87 W3        29.98R
TOLEDO EXEC    MOSUNNY   75  69  81 VRB3      29.99S
LIMA           CLOUDY    74  70  87 E3        29.99F
$$

OHZ009>014-019>023-028>033-038-089-221400-
   NORTHEAST OHIO

CITY           SKY/WX    TMP DP  RH WIND       PRES   REMARKS
CLE-HOPKINS    PTSUNNY   73  69  87 SW6       30.03R
CLE-LAKEFRONT  CLOUDY    73  69  87 SW12      29.99R
CUY CO. ARPT   CLOUDY    73  72  94 W7        30.01R
LORAIN-ELYRIA  CLOUDY    76  70  82 CALM      30.00F
ASHTABULA      CLOUDY    71  69  93 CALM      30.02R
AKRON-CANTON   CLOUDY    71  68  90 W5        30.03R FOG
WOOSTER        CLOUDY    72  69  90 NW5       30.03S FOG
MANSFIELD      CLOUDY    73  71  93 W3        30.03R
YOUNGSTOWN     LGT RAIN  69  67  93 S6        30.02R FOG
$$

OHZ042-051>053-060>062-070>072-077>081-221400-
  SOUTHWEST OHIO

CITY           SKY/WX    TMP DP  RH WIND       PRES   REMARKS
CINC-COVINGTON CLOUDY    75  72  90 CALM      30.02R
CINC-LUNKEN    CLOUDY    72  71  97 CALM      30.02R
HAMILTON       CLOUDY    73  72  96 CALM      30.03R FOG
DAYTON         RAIN      71  70  96 CALM      30.04R FOG
WRIGHT-PAT AFB LGT RAIN  70  70 100 W1        30.02S FOG
DAYTON GENERAL LGT RAIN  71  70  96 CALM      30.02S FOG
WILMINGTON     LGT RAIN  70  69  97 SW6       30.02S FOG
$$

OHZ036-037-039>041-045>050-054>059-063>069-073>076-082>088-221400-
  CENTRAL AND SOUTHEAST OHIO

CITY           SKY/WX    TMP DP  RH WIND       PRES   REMARKS
COLUMBUS       CLOUDY    72  68  87 CALM      30.03R
OSU AIRPORT    CLOUDY    71  68  90 SE5       30.03R FOG
BOLTON FIELD   LGT RAIN  70  70 100 CALM      30.04R
RICKENBACK AFB CLOUDY    69  65  85 CALM      30.03R
NEWARK         CLOUDY    70  68  93 SW5       30.03S
MARION         CLOUDY    73  69  87 W3        30.02S
LANCASTER      CLOUDY    71  68  90 CALM      30.03R
ZANESVILLE     CLOUDY    71  68  90 W6        30.02S
NEW PHILLY     CLOUDY    72  70  93 CALM      30.03R
$$


USA.gov is the U.S. government's official web portal to all federal, state and local government web resources and services.